STARLINK-31949 (59891 NORAD) Tracking and Keplerian Element Data

This shows tracking and keplerian element data for the satellite.

Feedback or suggestion? Click here.




ElementValue
Catalog59891
NameSTARLINK-31949
Epoch Orbit280
Epoch Day160.16667824
Epoch Year2024
RAAN174.3763
Inclination43.0036
Eccentricity0.0001175
Argument of Perigee271.63
Mean Anonmoly315.6468
Mean Motion15.79977661
Decay Rate-0.00997062
L11 59891U 24100G 24160.16667824 -.00997062 00000+0 -58413-2 0 9999
L22 59891 43.0036 174.3763 0001175 271.6300 315.6468 15.79977661 2805



Live tracking and technical data element details for STARLINK-31949 (NORAD 59891). STARLINK-31949 can be tracked NOW for your location showing map with azimuth and elevation plus other details from your city location.







IsCatalogInMostPopularTable: catalog: 59891, numindb: 7
Update: records affected: 1



GetName: 59891 STARLINK-31949

Hit Count: updated at: Tue, 16 Jul 2024 03:18:26 GMT